[[{"header":{"parameterUnit":"m.s-1","parameterCategory":1,"la1":30.2991,"la2":30.254,"lo1":-89.0895,"lo2":-89.0444,"dy":0.0017,"dx":0.0017,"nx":28,"ny":28,"refTime":"2023-08-30T03:00:00:Z","depth":0,"parameterNumber":2,"parameterNumberName":"U-component_of_WINDS"},"data":[0,0,0,0,0,0,0,0,0,0,0,0,0,0,0,0,0,0,0,0,0,0,0,0,0,0,0,0,0,0,0,0,0,0,0,0,0,0,0,0,0,0,0,0,0,0,0,0,0,0,0,0,0,0,0,0,0,0,0.2761,0.2761,0,0.2763,0.2763,0.2763,0.2785,0.2785,0.2786,0.2786,0.2788,0.2788,0.2787,0,0,0,0,0,0,0,0,0,0,0,0,0,0.2773,0.2773,0.2761,0.2761,0.2761,0.2763,0.2763,0.2763,0.2784,0.2785,0.2786,0.2786,0.2788,0.2788,0.2787,0,0,0,0,0,0,0,0,0,0,0,0,0,0.2771,0.2773,0.2761,0.2772,0.2773,0.2763,0.2763,0.2763,0.2784,0.2785,0.2786,0.2787,0.2788,0.2788,0.2787,0.2767,0,0,0.2785,0.2785,0,0,0,0,0,0,0,0,0.2771,0.277,0.277,0.2771,0.2772,0.2774,0.2768,0.2765,0.2784,0.278,0.2786,0.2787,0.2783,0.2783,0.2781,0.2767,0.2768,0.2785,0.2785,0.2784,0.2784,0,0,0,0,0,0,0,0.2771,0.277,0.2762,0.277,0.2771,0.2776,0.2777,0.2768,0.2777,0.278,0.2782,0.2782,0.2784,0.2782,0.2782,0.2768,0.2785,0.2784,0.2784,0.2784,0.2736,0.2735,0,0,0,0,0,0,0.277,0.277,0.2762,0.2762,0.2773,0.2775,0.2776,0.2773,0.2777,0.2778,0.2781,0.2783,0.2783,0.2782,0.2782,0.2757,0.2784,0.2784,0.2783,0.2737,0.2735,0.2734,0,0,0,0,0,0,0.277,0.2769,0.2762,0.2767,0.2766,0.2774,0.2771,0.2772,0.2771,0.2778,0.2779,0.2778,0.2783,0.2783,0.277,0.2758,0.2783,0.2783,0.2738,0.2736,0.2735,0.2709,0,0,0,0,0,0,0.277,0.2769,0.2762,0.2766,0.2766,0.275,0.277,0.2772,0.277,0.2772,0.2775,0.2776,0.2784,0.2771,0.277,0.2757,0.2782,0.2739,0.2737,0.2735,0.2711,0.2707,0.2703,0,0,0,0,0,0.2771,0.2754,0.2761,0.276,0.2757,0.275,0.2749,0.2758,0.2769,0.2761,0.2766,0.2776,0.276,0.277,0.2768,0.2755,0.2739,0.2737,0.2736,0.2713,0.2708,0.2703,0,0,0,0,0,0,0.2748,0.2755,0.2763,0.2748,0.2748,0.2753,0.2744,0.2753,0.275,0.2752,0.2764,0.2764,0.275,0.2752,0.2763,0.2736,0.2751,0.2749,0.2734,0.273,0.2726,0.2725,0.2782,0,0,0,0,0,0.2741,0.2735,0.2742,0.2728,0.2727,0.2736,0.2733,0.274,0.2741,0.2741,0.2744,0.2744,0.2739,0.2735,0.273,0.2712,0.2712,0.2702,0.2699,0.2695,0.2692,0.2681,0.2676,0.2728,0.2728,0.2728,0,0,0.2727,0.273,0.2726,0.2723,0.2724,0.2717,0.2736,0.2727,0.2722,0.2739,0.2727,0.273,0.2731,0.2715,0.2708,0.2716,0.2678,0.2693,0.269,0.2689,0.2678,0.2673,0.2669,0.2727,0.2727,0.2727,0,0,0.2697,0.27,0.2687,0.2688,0.2689,0.2695,0.2692,0.2696,0.2698,0.2686,0.2699,0.2693,0.2684,0.2683,0.2681,0.2651,0.266,0.2649,0.2629,0.2617,0.2613,0.2609,0.2596,0.2592,0.2647,0.2647,0.2647,0,0.2679,0.2669,0.268,0.267,0.2668,0.2684,0.2671,0.2671,0.2671,0.2669,0.2678,0.2666,0.2668,0.2651,0.2643,0.2643,0.2638,0.2648,0.2613,0.2609,0.2606,0.2594,0.2589,0.2645,0.2645,0.2646,0.2646,0,0.2646,0.2638,0.2628,0.2627,0.2624,0.2613,0.2622,0.2617,0.2625,0.2629,0.2616,0.2619,0.2614,0.2612,0.2619,0.2595,0.26,0.2611,0.2627,0.26,0.2588,0.2583,0.2643,0.2644,0.2644,0.2644,0,0,0.26,0.2605,0.2601,0.26,0.2603,0.2597,0.2586,0.2582,0.2577,0.2577,0.2567,0.2559,0.2568,0.2567,0.2574,0.2565,0.2537,0.2577,0.2577,0.2567,0.2509,0.2499,0.2493,0.2545,0.2544,0.2543,0.2508,0,0.2569,0.2551,0.2561,0.2541,0.2533,0.2548,0.2539,0.2539,0.2543,0.2536,0.2541,0.2534,0.2549,0.2548,0.2539,0.2543,0.2525,0.2546,0.2534,0.2533,0.253,0.2487,0.2477,0.2444,0.2504,0.2503,0.2503,0,0.2531,0.2528,0.2507,0.251,0.2507,0.2498,0.2494,0.2489,0.2489,0.2492,0.249,0.25,0.2488,0.2506,0.2489,0.2503,0.2499,0.25,0.2499,0.2496,0.2514,0.2481,0.2434,0.2427,0.2496,0.2497,0.2497,0,0.2496,0.2488,0.2474,0.2473,0.2476,0.2469,0.2471,0.2472,0.2468,0.2465,0.2462,0.2458,0.2455,0.2451,0.2459,0.2471,0.2441,0.2459,0.2442,0.2441,0.2433,0.2433,0.2381,0.2434,0.2435,0.2435,0.2435,0,0.2459,0.2445,0.2458,0.2449,0.2434,0.2445,0.2429,0.2432,0.2433,0.2424,0.2438,0.2429,0.2442,0.2434,0.244,0.2424,0.2424,0.2425,0.2426,0.2422,0.2422,0.2418,0.2419,0.2433,0.2434,0.2434,0.2434,0,0.2418,0.2426,0.2411,0.2416,0.2416,0.2404,0.2408,0.24,0.2405,0.2393,0.2391,0.2399,0.2391,0.2399,0.2391,0.2395,0.2373,0.238,0.2373,0.2374,0.2355,0.2355,0.2297,0.2289,0.235,0.2349,0.2349,0,0.2392,0.2382,0.2385,0.238,0.238,0.2373,0.2369,0.238,0.2375,0.2374,0.2365,0.2359,0.2353,0.2339,0.2343,0.2337,0.2341,0.2322,0.234,0.2336,0.2338,0.2337,0.2335,0.2317,0.2316,0.2315,0.2315,0,0.2345,0.235,0.2344,0.2339,0.2334,0.2331,0.2329,0.2324,0.2336,0.233,0.2321,0.2317,0.2309,0.2301,0.2296,0.2297,0.2306,0.2309,0.2304,0.2299,0.2294,0.2294,0.236,0.231,0.231,0.2311,0.2311,0.2311,0.2309,0.23,0.23,0.2293,0.2293,0.229,0.2282,0.2286,0.2279,0.2273,0.228,0.2269,0.2269,0.2264,0.2263,0.2254,0.2262,0.2256,0.2254,0.2251,0.2247,0.2298,0.2253,0.2254,0.2254,0.2254,0.2254,0,0.2261,0.2262,0.2255,0.2251,0.2245,0.2257,0.2255,0.2249,0.2239,0.2238,0.2232,0.2222,0.2214,0.2218,0.2211,0.2203,0.2207,0.22,0.22,0.2199,0.2241,0.2245,0.2197,0.2197,0.2197,0.2197,0.2197,0.2197,0.2235,0.2219,0.2223,0.2207,0.2208,0.2197,0.2195,0.2192,0.2191,0.2179,0.2172,0.2175,0.2176,0.2169,0.2162,0.2163,0.2159,0.215,0.2152,0.2191,0.2197,0.2202,0.2205,0.2149,0.2149,0.2111,0.211,0.211]},{"header":{"parameterUnit":"m.s-1","parameterCategory":1,"la1":30.2991,"la2":30.254,"lo1":-89.0895,"lo2":-89.0444,"dy":0.0017,"dx":0.0017,"nx":28,"ny":28,"refTime":"2023-08-30T03:00:00:Z","depth":0,"parameterNumber":3,"parameterNumberName":"V-component_of_WINDS"},"data":[0,0,0,0,0,0,0,0,0,0,0,0,0,0,0,0,0,0,0,0,0,0,0,0,0,0,0,0,0,0,0,0,0,0,0,0,0,0,0,0,0,0,0,0,0,0,0,0,0,0,0,0,0,0,0,0,0,0,-4.1831,-4.1832,0,-4.1931,-4.1933,-4.1934,-4.1917,-4.1916,-4.1914,-4.1912,-4.2009,-4.2013,-4.2017,0,0,0,0,0,0,0,0,0,0,0,0,0,-4.1619,-4.1623,-4.1831,-4.1832,-4.1833,-4.1931,-4.1933,-4.1934,-4.1918,-4.1915,-4.1913,-4.1911,-4.2008,-4.2012,-4.2017,0,0,0,0,0,0,0,0,0,0,0,0,0,-4.1714,-4.1624,-4.1831,-4.1837,-4.1839,-4.1931,-4.1933,-4.1934,-4.1918,-4.1915,-4.1913,-4.191,-4.2006,-4.2012,-4.2018,-4.2108,0,0,-4.2037,-4.204,0,0,0,0,0,0,0,0,-4.1709,-4.1722,-4.1835,-4.1837,-4.1839,-4.1909,-4.1893,-4.1992,-4.1919,-4.1888,-4.1912,-4.1909,-4.1977,-4.1986,-4.201,-4.2113,-4.2117,-4.2038,-4.2042,-4.2044,-4.2046,0,0,0,0,0,0,0,-4.1702,-4.1717,-4.187,-4.1837,-4.1839,-4.1833,-4.1844,-4.1912,-4.1946,-4.189,-4.1889,-4.1902,-4.1978,-4.2004,-4.2012,-4.2118,-4.2038,-4.2043,-4.2047,-4.205,-4.2299,-4.2302,0,0,0,0,0,0,-4.1694,-4.1712,-4.1867,-4.1874,-4.1766,-4.1839,-4.1851,-4.1889,-4.1945,-4.1951,-4.1904,-4.1901,-4.1995,-4.2005,-4.2016,-4.2125,-4.2044,-4.205,-4.2054,-4.2296,-4.23,-4.2303,0,0,0,0,0,0,-4.169,-4.1708,-4.1863,-4.1793,-4.1812,-4.1845,-4.1888,-4.1893,-4.1919,-4.1955,-4.196,-4.1925,-4.1993,-4.2007,-4.2086,-4.2128,-4.2053,-4.2059,-4.2293,-4.2297,-4.2301,-4.2343,0,0,0,0,0,0,-4.1684,-4.1707,-4.1743,-4.1794,-4.1816,-4.1934,-4.1891,-4.1896,-4.193,-4.1927,-4.1976,-4.1982,-4.1992,-4.2076,-4.2092,-4.2135,-4.2064,-4.2289,-4.2295,-4.23,-4.2338,-4.2349,-4.2357,0,0,0,0,0,-4.1676,-4.175,-4.1745,-4.1764,-4.1862,-4.1936,-4.1949,-4.1961,-4.1934,-4.1969,-4.1993,-4.198,-4.2121,-4.2085,-4.2102,-4.2148,-4.2287,-4.2293,-4.23,-4.2334,-4.2347,-4.2357,0,0,0,0,0,0,-4.1701,-4.1756,-4.1752,-4.1844,-4.1886,-4.1933,-4.1979,-4.1973,-4.2022,-4.2017,-4.2027,-4.2039,-4.2119,-4.2141,-4.21,-4.2237,-4.22,-4.221,-4.222,-4.2232,-4.2242,-4.2234,-4.2069,0,0,0,0,0,-4.1718,-4.1775,-4.182,-4.1897,-4.1918,-4.1945,-4.1978,-4.1983,-4.2026,-4.2043,-4.2072,-4.2112,-4.2165,-4.22,-4.2251,-4.2342,-4.2351,-4.2381,-4.2391,-4.2398,-4.2407,-4.2456,-4.2469,-4.2324,-4.2324,-4.2324,0,0,-4.1752,-4.1789,-4.1824,-4.1903,-4.1936,-4.1993,-4.196,-4.2022,-4.2064,-4.2052,-4.2129,-4.2151,-4.2197,-4.2282,-4.2321,-4.2303,-4.2449,-4.2407,-4.2412,-4.2417,-4.2464,-4.2477,-4.249,-4.2329,-4.2328,-4.2327,0,0,-4.1843,-4.1878,-4.1946,-4.198,-4.2031,-4.2049,-4.2065,-4.2113,-4.2129,-4.2206,-4.2198,-4.2247,-4.2339,-4.2371,-4.24,-4.2504,-4.2494,-4.252,-4.2569,-4.2617,-4.2628,-4.2638,-4.2675,-4.2688,-4.2528,-4.2528,-4.2528,0,-4.1879,-4.1968,-4.1981,-4.2045,-4.2079,-4.2072,-4.214,-4.2171,-4.2236,-4.2258,-4.2238,-4.2352,-4.2382,-4.2475,-4.25,-4.2524,-4.2541,-4.2514,-4.2626,-4.2636,-4.2646,-4.268,-4.2694,-4.2531,-4.2531,-4.253,-4.253,0,-4.2008,-4.2069,-4.2118,-4.2182,-4.2222,-4.2287,-4.2308,-4.2346,-4.2348,-4.2367,-4.2445,-4.2481,-4.2539,-4.2562,-4.2564,-4.2654,-4.2642,-4.2623,-4.2586,-4.2662,-4.2695,-4.2708,-4.2535,-4.2534,-4.2533,-4.2533,0,0,-4.2118,-4.219,-4.2207,-4.2236,-4.2292,-4.2339,-4.2403,-4.2462,-4.2493,-4.2537,-4.259,-4.2668,-4.2652,-4.2684,-4.2689,-4.2731,-4.281,-4.2708,-4.2709,-4.2725,-4.2912,-4.2925,-4.294,-4.2804,-4.2807,-4.2809,-4.2908,0,-4.2215,-4.2331,-4.2345,-4.2447,-4.2503,-4.2497,-4.2553,-4.2592,-4.2611,-4.266,-4.268,-4.2735,-4.2709,-4.2729,-4.277,-4.2792,-4.2848,-4.2785,-4.2852,-4.2854,-4.2841,-4.2958,-4.2972,-4.3064,-4.2921,-4.2923,-4.2924,0,-4.2343,-4.2394,-4.2502,-4.255,-4.2574,-4.2624,-4.2679,-4.2726,-4.2769,-4.278,-4.2817,-4.2817,-4.2881,-4.2841,-4.2929,-4.2886,-4.2914,-4.2929,-4.2932,-4.2939,-4.2894,-4.2967,-4.3093,-4.3107,-4.2945,-4.2943,-4.2942,0,-4.2412,-4.2507,-4.2584,-4.2609,-4.2667,-4.2702,-4.2727,-4.2769,-4.2803,-4.285,-4.2872,-4.2924,-4.2953,-4.2993,-4.3007,-4.2977,-4.3094,-4.3055,-4.3103,-4.3103,-4.3128,-4.3126,-4.326,-4.3146,-4.3146,-4.3146,-4.3146,0,-4.2519,-4.2585,-4.2616,-4.2663,-4.2737,-4.2751,-4.2823,-4.2846,-4.2883,-4.2933,-4.293,-4.2977,-4.2992,-4.3041,-4.3052,-4.3122,-4.3135,-4.3145,-4.3147,-4.3145,-4.3144,-4.3163,-4.3157,-4.315,-4.3149,-4.3148,-4.3147,0,-4.2609,-4.2632,-4.2716,-4.2764,-4.2778,-4.283,-4.287,-4.2915,-4.2933,-4.2997,-4.3012,-4.3041,-4.3098,-4.3116,-4.3184,-4.3191,-4.3274,-4.327,-4.326,-4.326,-4.3307,-4.3302,-4.3458,-4.3479,-4.3351,-4.3353,-4.3354,0,-4.2675,-4.2727,-4.2781,-4.2816,-4.2843,-4.2898,-4.2934,-4.2949,-4.2986,-4.3039,-4.3077,-4.3134,-4.3181,-4.3272,-4.3297,-4.3349,-4.3347,-4.3398,-4.3354,-4.3351,-4.3347,-4.3344,-4.3349,-4.3406,-4.3407,-4.3408,-4.3409,0,-4.2791,-4.28,-4.2852,-4.2909,-4.2952,-4.2996,-4.3039,-4.3067,-4.3088,-4.3128,-4.3188,-4.3225,-4.3295,-4.3352,-4.3405,-4.3428,-4.3422,-4.3423,-4.3436,-4.3435,-4.3427,-4.3432,-4.3282,-4.3419,-4.3418,-4.3417,-4.3417,-4.3416,-4.2871,-4.2916,-4.2962,-4.302,-4.3054,-4.3094,-4.3139,-4.3163,-4.3214,-4.3274,-4.3279,-4.3344,-4.3384,-4.3455,-4.3482,-4.3531,-4.3516,-4.3536,-4.3541,-4.3546,-4.3549,-4.342,-4.354,-4.354,-4.354,-4.354,-4.3539,0,-4.2986,-4.3015,-4.3069,-4.313,-4.3175,-4.3167,-4.3214,-4.3252,-4.3309,-4.3349,-4.3395,-4.3463,-4.3518,-4.3548,-4.3601,-4.3635,-4.3633,-4.3648,-4.3646,-4.3651,-4.356,-4.3543,-4.3649,-4.3649,-4.3649,-4.3649,-4.3649,-4.3649,-4.3052,-4.3128,-4.3142,-4.3234,-4.3262,-4.3327,-4.3354,-4.3391,-4.3423,-4.3499,-4.3546,-4.3565,-4.3601,-4.3657,-4.3706,-4.3713,-4.3733,-4.375,-4.3755,-4.3669,-4.3658,-4.3647,-4.3631,-4.3754,-4.3754,-4.3843,-4.3843,-4.3844]}]]